TimeCST,TemperatureF,Dew PointF,Humidity,Sea Level PressureIn,VisibilityMPH,Wind Direction,Wind SpeedMPH,Gust SpeedMPH,PrecipitationIn,Events,Conditions,WindDirDegrees,DateUTC
12:13 AM,32.0,21.2,64,30.12,10.0,NW,16.1,23.0,N/A,,Overcast,320,2013-11-26 06:13:00
12:33 AM,32.0,21.2,64,30.12,10.0,NNW,16.1,19.6,N/A,,Overcast,330,2013-11-26 06:33:00
12:53 AM,32.0,21.2,64,30.12,10.0,NW,16.1,-,N/A,,Overcast,320,2013-11-26 06:53:00
1:13 AM,32.0,21.2,64,30.12,10.0,NW,18.4,24.2,N/A,,Overcast,320,2013-11-26 07:13:00
1:33 AM,32.0,21.2,64,30.12,10.0,NNW,17.3,25.3,N/A,,Overcast,330,2013-11-26 07:33:00
1:53 AM,32.0,21.2,64,30.12,10.0,NNW,19.6,24.2,N/A,,Overcast,330,2013-11-26 07:53:00
2:13 AM,32.0,21.2,64,30.13,10.0,NNW,20.7,32.2,N/A,,Overcast,330,2013-11-26 08:13:00
2:33 AM,30.2,19.4,64,30.14,10.0,NNW,17.3,27.6,N/A,,Overcast,330,2013-11-26 08:33:00
2:53 AM,30.2,19.4,64,30.14,10.0,NNW,24.2,33.4,N/A,,Overcast,330,2013-11-26 08:53:00
3:13 AM,30.2,19.4,64,30.14,10.0,NNW,20.7,34.5,N/A,,Overcast,330,2013-11-26 09:13:00
3:33 AM,28.4,19.4,69,30.14,10.0,North,15.0,27.6,N/A,,Overcast,350,2013-11-26 09:33:00
3:53 AM,26.6,17.6,69,30.15,10.0,NNW,23.0,33.4,N/A,,Overcast,330,2013-11-26 09:53:00
4:13 AM,26.6,15.8,64,30.15,10.0,NNW,20.7,32.2,N/A,,Overcast,340,2013-11-26 10:13:00
4:33 AM,26.6,14.0,59,30.15,10.0,NNW,23.0,31.1,N/A,,Overcast,340,2013-11-26 10:33:00
4:53 AM,26.6,15.8,64,30.16,10.0,NNW,21.9,36.8,N/A,,Overcast,330,2013-11-26 10:53:00
5:13 AM,26.6,14.0,59,30.17,10.0,NW,29.9,38.0,N/A,,Overcast,320,2013-11-26 11:13:00
5:33 AM,24.8,14.0,64,30.18,10.0,NNW,20.7,31.1,N/A,,Overcast,340,2013-11-26 11:33:00
5:53 AM,23.0,12.2,63,30.19,10.0,NNW,21.9,35.7,N/A,,Overcast,340,2013-11-26 11:53:00
6:13 AM,23.0,10.4,59,30.20,10.0,NNW,19.6,33.4,N/A,,Overcast,340,2013-11-26 12:13:00
6:33 AM,21.2,8.6,58,30.21,10.0,NNW,24.2,32.2,N/A,,Mostly Cloudy,330,2013-11-26 12:33:00
6:53 AM,19.4,10.4,68,30.23,10.0,NNW,19.6,27.6,N/A,,Clear,330,2013-11-26 12:53:00
7:13 AM,19.4,10.4,68,30.24,10.0,NW,19.6,25.3,N/A,,Clear,320,2013-11-26 13:13:00
7:33 AM,19.4,10.4,68,30.25,10.0,NNW,19.6,25.3,N/A,,Scattered Clouds,330,2013-11-26 13:33:00
7:53 AM,19.4,10.4,68,30.25,10.0,NW,19.6,25.3,N/A,,Clear,320,2013-11-26 13:53:00
8:13 AM,19.4,10.4,68,30.26,10.0,NW,19.6,25.3,N/A,,Clear,320,2013-11-26 14:13:00
8:33 AM,19.4,10.4,68,30.27,10.0,NW,18.4,24.2,N/A,,Clear,320,2013-11-26 14:33:00
8:53 AM,19.4,8.6,63,30.27,10.0,NW,23.0,32.2,N/A,,Clear,320,2013-11-26 14:53:00
9:13 AM,21.2,8.6,58,30.28,10.0,NW,23.0,31.1,N/A,,Clear,320,2013-11-26 15:13:00
9:33 AM,21.2,8.6,58,30.29,10.0,NW,25.3,32.2,N/A,,Scattered Clouds,320,2013-11-26 15:33:00
9:53 AM,21.2,8.6,58,30.30,10.0,NW,27.6,33.4,N/A,,Scattered Clouds,320,2013-11-26 15:53:00
10:13 AM,21.2,8.6,58,30.30,10.0,NNW,20.7,29.9,N/A,,Scattered Clouds,330,2013-11-26 16:13:00
10:33 AM,21.2,8.6,58,30.31,10.0,NNW,24.2,33.4,N/A,,Scattered Clouds,330,2013-11-26 16:33:00
10:53 AM,23.0,6.8,50,30.31,10.0,NW,28.8,34.5,N/A,,Scattered Clouds,320,2013-11-26 16:53:00
11:13 AM,23.0,5.0,46,30.30,10.0,NW,27.6,32.2,N/A,,Clear,310,2013-11-26 17:13:00
11:33 AM,23.0,3.2,43,30.30,10.0,NW,27.6,38.0,N/A,,Clear,320,2013-11-26 17:33:00
11:53 AM,24.8,5.0,43,30.29,10.0,NW,26.5,35.7,N/A,,Clear,320,2013-11-26 17:53:00
12:13 PM,24.8,5.0,43,30.28,10.0,NW,25.3,34.5,N/A,,Clear,310,2013-11-26 18:13:00
12:33 PM,26.6,3.2,37,30.28,10.0,NW,27.6,35.7,N/A,,Clear,320,2013-11-26 18:33:00
12:53 PM,24.8,5.0,43,30.28,10.0,NW,28.8,36.8,N/A,,Clear,310,2013-11-26 18:53:00
1:13 PM,26.6,3.2,37,30.27,10.0,NW,27.6,36.8,N/A,,Scattered Clouds,320,2013-11-26 19:13:00
1:33 PM,26.6,3.2,37,30.27,10.0,NNW,25.3,40.3,N/A,,Scattered Clouds,340,2013-11-26 19:33:00
1:53 PM,26.6,3.2,37,30.27,10.0,NW,28.8,36.8,N/A,,Scattered Clouds,320,2013-11-26 19:53:00
2:14 PM,26.6,3.2,37,30.28,10.0,NW,23.0,36.8,N/A,,Scattered Clouds,320,2013-11-26 20:14:00
2:33 PM,26.6,3.2,37,30.27,10.0,NNW,25.3,38.0,N/A,,Scattered Clouds,340,2013-11-26 20:33:00
2:53 PM,26.6,3.2,37,30.28,10.0,NNW,26.5,41.4,N/A,,Clear,330,2013-11-26 20:53:00
3:13 PM,26.6,3.2,37,30.28,10.0,NNW,32.2,42.6,N/A,,Scattered Clouds,330,2013-11-26 21:13:00
3:33 PM,24.8,3.2,40,30.28,10.0,NNW,26.5,38.0,N/A,,Scattered Clouds,330,2013-11-26 21:33:00
3:53 PM,24.8,3.2,40,30.28,10.0,NW,25.3,34.5,N/A,,Clear,320,2013-11-26 21:53:00
4:13 PM,23.0,3.2,43,30.29,10.0,NW,25.3,32.2,N/A,,Clear,320,2013-11-26 22:13:00
4:33 PM,23.0,3.2,43,30.29,10.0,NNW,24.2,31.1,N/A,,Clear,330,2013-11-26 22:33:00
4:53 PM,23.0,3.2,43,30.31,10.0,NNW,17.3,27.6,N/A,,Clear,330,2013-11-26 22:53:00
5:13 PM,23.0,5.0,46,30.31,10.0,NNW,18.4,25.3,N/A,,Clear,330,2013-11-26 23:13:00
5:33 PM,21.2,5.0,50,30.32,10.0,NNW,19.6,24.2,N/A,,Clear,330,2013-11-26 23:33:00
5:53 PM,21.2,5.0,50,30.32,10.0,NNW,17.3,24.2,N/A,,Clear,330,2013-11-26 23:53:00
6:13 PM,21.2,5.0,50,30.32,10.0,NW,17.3,23.0,N/A,,Clear,320,2013-11-27 00:13:00
6:33 PM,21.2,5.0,50,30.32,10.0,NNW,15.0,-,N/A,,Clear,330,2013-11-27 00:33:00
6:53 PM,19.4,5.0,54,30.32,10.0,NNW,12.7,17.3,N/A,,Clear,340,2013-11-27 00:53:00
7:13 PM,19.4,6.8,58,30.32,10.0,NNW,13.8,20.7,N/A,,Clear,340,2013-11-27 01:13:00
7:33 PM,19.4,6.8,58,30.33,10.0,NNW,12.7,20.7,N/A,,Clear,340,2013-11-27 01:33:00
7:53 PM,17.6,6.8,63,30.33,10.0,North,9.2,16.1,N/A,,Clear,350,2013-11-27 01:53:00
8:13 PM,17.6,6.8,63,30.33,10.0,North,9.2,-,N/A,,Clear,350,2013-11-27 02:13:00
8:33 PM,17.6,6.8,63,30.34,10.0,North,10.4,18.4,N/A,,Clear,350,2013-11-27 02:33:00
8:53 PM,17.6,6.8,63,30.34,10.0,North,10.4,-,N/A,,Clear,350,2013-11-27 02:53:00
9:13 PM,15.8,6.8,68,30.34,10.0,North,9.2,-,N/A,,Clear,350,2013-11-27 03:13:00
9:34 PM,15.8,6.8,68,30.34,10.0,North,6.9,-,N/A,,Clear,350,2013-11-27 03:34:00
9:53 PM,14.0,6.8,73,30.35,10.0,North,6.9,-,N/A,,Clear,350,2013-11-27 03:53:00
10:13 PM,14.0,6.8,73,30.35,10.0,North,8.1,-,N/A,,Clear,0,2013-11-27 04:13:00
10:33 PM,14.0,5.0,67,30.36,10.0,North,4.6,-,N/A,,Clear,350,2013-11-27 04:33:00
10:53 PM,12.2,5.0,73,30.36,10.0,North,3.5,-,N/A,,Clear,350,2013-11-27 04:53:00
11:13 PM,12.2,5.0,73,30.36,10.0,NNW,6.9,-,N/A,,Clear,340,2013-11-27 05:13:00
11:34 PM,12.2,5.0,73,30.37,10.0,NNW,6.9,-,N/A,,Clear,330,2013-11-27 05:34:00
11:53 PM,10.4,5.0,79,30.36,10.0,NNW,5.8,-,N/A,,Clear,330,2013-11-27 05:53:00